Time,TemperatureF,DewpointF,PressureIn,WindDirection,WindDirectionDegrees,WindSpeedMPH,WindSpeedGustMPH,Humidity,HourlyPrecipIn,Conditions,Clouds,dailyrainin,SolarRadiationWatts/m^2,SoftwareType,DateUTC
2018-05-20 00:02:00,44.6,40.7,30.18,ENE,59,0.0,0.0,86,0.00,RA,,0.00,0.0,WeatherDisplay:10.37,2018-05-20 06:02:00,
2018-05-20 00:07:00,44.6,40.7,30.18,ENE,59,0.0,0.0,86,0.00,RA,,0.00,0.0,WeatherDisplay:10.37,2018-05-20 06:07:00,
2018-05-20 00:12:00,44.6,40.7,30.18,ENE,59,0.0,0.0,86,0.00,RA,,0.00,0.0,WeatherDisplay:10.37,2018-05-20 06:12:00,
2018-05-20 00:17:00,44.6,40.7,30.18,ENE,59,0.0,0.0,86,0.00,CLR,,0.00,0.0,WeatherDisplay:10.37,2018-05-20 06:17:00,
2018-05-20 00:22:00,44.6,41.0,30.18,ENE,59,0.0,0.0,87,0.00,CLR,,0.00,0.0,WeatherDisplay:10.37,2018-05-20 06:22:00,
2018-05-20 00:27:00,44.6,41.0,30.18,ENE,59,0.0,0.0,87,0.00,CLR,,0.00,0.0,WeatherDisplay:10.37,2018-05-20 06:27:00,
2018-05-20 00:32:00,44.7,41.1,30.18,ENE,59,1.2,1.2,87,0.00,CLR,,0.00,0.0,WeatherDisplay:10.37,2018-05-20 06:32:00,
2018-05-20 00:37:00,44.6,41.0,30.19,ENE,59,2.3,2.3,87,0.00,CLR,,0.00,0.0,WeatherDisplay:10.37,2018-05-20 06:37:00,
2018-05-20 00:42:00,44.6,41.0,30.18,ENE,59,0.0,0.0,87,0.00,CLR,,0.00,0.0,WeatherDisplay:10.37,2018-05-20 06:42:00,
2018-05-20 00:47:00,44.6,41.0,30.18,ENE,59,0.0,0.0,87,0.00,CLR,,0.00,0.0,WeatherDisplay:10.37,2018-05-20 06:47:00,
2018-05-20 00:52:00,44.6,41.0,30.17,ENE,59,0.0,0.0,87,0.00,CLR,,0.00,0.0,WeatherDisplay:10.37,2018-05-20 06:52:00,
2018-05-20 00:57:00,44.6,41.3,30.17,ENE,59,0.0,0.0,88,0.00,CLR,,0.00,0.0,WeatherDisplay:10.37,2018-05-20 06:57:00,
2018-05-20 01:02:00,44.6,41.3,30.17,ENE,59,0.0,0.0,88,0.00,CLR,,0.00,0.0,WeatherDisplay:10.37,2018-05-20 07:02:00,
2018-05-20 01:07:00,44.7,41.4,30.17,ENE,59,2.3,2.3,88,0.00,CLR,,0.00,0.0,WeatherDisplay:10.37,2018-05-20 07:07:00,
2018-05-20 01:12:00,44.6,41.3,30.17,ENE,59,3.5,3.5,88,0.00,CLR,,0.00,0.0,WeatherDisplay:10.37,2018-05-20 07:12:00,
2018-05-20 01:17:00,44.5,41.2,30.16,ENE,59,1.2,1.2,88,0.00,CLR,,0.00,0.0,WeatherDisplay:10.37,2018-05-20 07:17:00,
2018-05-20 01:22:00,44.3,41.0,30.16,ENE,59,1.2,1.2,88,0.00,CLR,,0.00,0.0,WeatherDisplay:10.37,2018-05-20 07:22:00,
2018-05-20 01:27:00,44.1,40.8,30.16,ENE,59,1.2,0.0,88,0.00,CLR,,0.00,0.0,WeatherDisplay:10.37,2018-05-20 07:27:00,
2018-05-20 01:32:00,43.9,40.3,30.16,ENE,74,2.3,2.3,87,0.00,CLR,,0.00,0.0,WeatherDisplay:10.37,2018-05-20 07:32:00,
2018-05-20 01:37:00,43.6,40.0,30.16,ENE,71,1.2,0.0,87,0.00,CLR,,0.00,0.0,WeatherDisplay:10.37,2018-05-20 07:37:00,
2018-05-20 01:42:00,43.5,40.2,30.16,ENE,71,3.5,3.5,88,0.00,CLR,,0.00,0.0,WeatherDisplay:10.37,2018-05-20 07:42:00,
2018-05-20 01:47:00,43.4,40.1,30.16,ENE,70,2.3,0.0,88,0.00,CLR,,0.00,0.0,WeatherDisplay:10.37,2018-05-20 07:47:00,
2018-05-20 01:52:00,43.4,40.1,30.16,ENE,70,1.2,1.2,88,0.00,CLR,,0.00,0.0,WeatherDisplay:10.37,2018-05-20 07:52:00,
2018-05-20 01:57:00,43.3,40.0,30.16,ENE,70,1.0,1.0,88,0.00,CLR,,0.00,0.0,WeatherDisplay:10.37,2018-05-20 07:57:00,
2018-05-20 02:02:00,43.3,40.0,30.15,ENE,70,2.3,0.0,88,0.00,CLR,,0.00,0.0,WeatherDisplay:10.37,2018-05-20 08:02:00,
2018-05-20 02:07:00,43.3,40.0,30.15,ENE,70,1.2,1.2,88,0.00,CLR,,0.00,0.0,WeatherDisplay:10.37,2018-05-20 08:07:00,
2018-05-20 02:12:00,43.3,40.0,30.15,ENE,70,0.0,0.0,88,0.00,CLR,,0.00,0.0,WeatherDisplay:10.37,2018-05-20 08:12:00,
2018-05-20 02:17:00,43.3,40.0,30.15,ENE,69,0.0,0.0,88,0.00,CLR,,0.00,0.0,WeatherDisplay:10.37,2018-05-20 08:17:00,
2018-05-20 02:22:00,43.3,40.0,30.14,ENE,69,0.0,0.0,88,0.00,CLR,,0.00,0.0,WeatherDisplay:10.37,2018-05-20 08:22:00,
2018-05-20 02:27:00,43.2,39.9,30.14,ENE,69,0.0,0.0,88,0.00,CLR,,0.00,0.0,WeatherDisplay:10.37,2018-05-20 08:27:00,
2018-05-20 02:32:00,43.2,39.9,30.14,ENE,69,0.0,0.0,88,0.00,CLR,,0.00,0.0,WeatherDisplay:10.37,2018-05-20 08:32:00,
2018-05-20 02:37:00,43.2,39.6,30.14,ENE,69,1.2,1.2,87,0.00,CLR,,0.00,0.0,WeatherDisplay:10.37,2018-05-20 08:37:00,
2018-05-20 02:42:00,43.2,39.6,30.13,ENE,70,1.2,0.0,87,0.00,CLR,,0.00,0.0,WeatherDisplay:10.37,2018-05-20 08:42:00,
2018-05-20 02:47:00,43.1,39.5,30.13,ENE,70,1.2,0.0,87,0.00,CLR,,0.00,0.0,WeatherDisplay:10.37,2018-05-20 08:47:00,
2018-05-20 02:52:00,43.1,39.5,30.12,ENE,70,0.0,0.1,87,0.00,CLR,,0.00,0.0,WeatherDisplay:10.37,2018-05-20 08:52:00,
2018-05-20 02:57:00,43.1,39.5,30.12,ENE,69,1.2,1.2,87,0.00,CLR,,0.00,0.0,WeatherDisplay:10.37,2018-05-20 08:57:00,
2018-05-20 03:02:00,43.1,39.5,30.12,ENE,70,2.3,2.3,87,0.00,CLR,,0.00,0.0,WeatherDisplay:10.37,2018-05-20 09:02:00,
2018-05-20 03:07:00,43.1,39.5,30.12,ENE,69,0.0,0.0,87,0.00,CLR,,0.00,0.0,WeatherDisplay:10.37,2018-05-20 09:07:00,
2018-05-20 03:12:00,43.1,39.5,30.12,ENE,69,0.0,0.0,87,0.00,CLR,,0.00,0.0,WeatherDisplay:10.37,2018-05-20 09:12:00,
2018-05-20 03:17:00,43.1,39.5,30.12,ENE,70,0.0,0.0,87,0.00,CLR,,0.00,0.0,WeatherDisplay:10.37,2018-05-20 09:17:00,
2018-05-20 03:22:00,43.1,39.5,30.12,ENE,70,0.0,0.0,87,0.00,CLR,,0.00,0.0,WeatherDisplay:10.37,2018-05-20 09:22:00,
2018-05-20 03:27:00,43.1,39.5,30.12,ENE,69,1.0,0.0,87,0.00,CLR,,0.00,0.0,WeatherDisplay:10.37,2018-05-20 09:27:00,
2018-05-20 03:32:00,43.2,41.0,30.13,ENE,70,1.2,0.0,92,0.00,CLR,,0.00,0.0,WeatherDisplay:10.37,2018-05-20 09:32:00,
2018-05-20 03:37:00,43.2,39.6,30.12,ENE,69,1.0,1.0,87,0.00,CLR,,0.00,0.0,WeatherDisplay:10.37,2018-05-20 09:37:00,
2018-05-20 03:42:00,43.2,39.6,30.13,ENE,69,1.2,1.2,87,0.00,CLR,,0.00,0.0,WeatherDisplay:10.37,2018-05-20 09:42:00,
2018-05-20 03:47:00,43.2,39.6,30.13,ENE,69,1.2,0.0,87,0.00,CLR,,0.00,0.0,WeatherDisplay:10.37,2018-05-20 09:47:00,
2018-05-20 03:52:00,43.2,39.6,30.13,ENE,69,2.3,0.0,87,0.00,CLR,,0.00,0.0,WeatherDisplay:10.37,2018-05-20 09:52:00,
2018-05-20 03:57:00,43.2,39.9,30.13,ENE,70,1.2,1.2,88,0.00,CLR,,0.00,0.0,WeatherDisplay:10.37,2018-05-20 09:57:00,
2018-05-20 04:02:00,43.3,40.0,30.13,ENE,70,0.0,0.0,88,0.00,CLR,,0.00,0.0,WeatherDisplay:10.37,2018-05-20 10:02:00,
2018-05-20 04:07:00,43.3,40.0,30.13,ENE,70,0.0,0.1,88,0.00,CLR,,0.00,0.0,WeatherDisplay:10.37,2018-05-20 10:07:00,
2018-05-20 04:12:00,43.2,39.9,30.14,ENE,70,1.2,1.2,88,0.00,CLR,,0.00,0.0,WeatherDisplay:10.37,2018-05-20 10:12:00,
2018-05-20 04:17:00,43.2,39.9,30.14,ENE,70,1.0,1.0,88,0.00,CLR,,0.00,0.0,WeatherDisplay:10.37,2018-05-20 10:17:00,
2018-05-20 04:22:00,43.2,39.9,30.14,ENE,69,1.2,0.0,88,0.00,CLR,,0.00,0.0,WeatherDisplay:10.37,2018-05-20 10:22:00,
2018-05-20 04:27:00,43.3,40.0,30.15,ENE,70,0.0,0.0,88,0.00,CLR,,0.00,0.0,WeatherDisplay:10.37,2018-05-20 10:27:00,
2018-05-20 04:32:00,43.3,40.0,30.15,ENE,70,2.3,2.3,88,0.00,CLR,,0.00,0.0,WeatherDisplay:10.37,2018-05-20 10:32:00,